Location: Leiter
(44.7178°N, 106.2687°W)
Time: 23:11:45
(UTC+00:00)

STARS - Pass Details

Date: 07 July 2022
Orbit: 620 x 637 km, 98.2° (Epoch: 07 August)

Event Time Altitude Azimuth Distance (km) Brightness Sun altitude
Rises 06:47:04 0° 2° (N) 2,926 ? -22.5°
Reaches altitude 10° 06:49:32 10° 350° (N) 2,011 ? -22.5°
Maximum altitude 06:53:08 26° 294° (WNW) 1,246 ? -22.6°
Enters shadow 06:55:02 19° 256° (WSW) 1,491 ? -22.6°
